Stations météo

réclame
Mon MeteoGroup
Kinlochewe, Grande-Bretagne (99092): Température de l'air & dewpoint: 11.10.2018 06:00:00 - 17.10.2018 06:00:00 (BST)Kinlochewe, Grande-Bretagne (99092): Température de l'air -20cm: 11.10.2018 06:00:00 - 17.10.2018 06:00:00 (BST)Kinlochewe, Grande-Bretagne (99092): Quantités de précipitations: 11.10.2018 06:00:00 - 17.10.2018 06:00:00 (BST)
Date & Time tt [°C] td [°C] tt -20cm [°C] rr [mm]
17.10.2018 06:00:00 9,7 4,7 - 0,0
17.10.2018 05:00:00 9,8 4,6 - 0,0
17.10.2018 04:00:00 10,1 5,2 - 0,0
17.10.2018 03:00:00 10,5 5,1 - 0,0
17.10.2018 02:00:00 10,2 7,9 - 0,2
17.10.2018 01:00:00 10,7 7,6 - 0,0
17.10.2018 00:00:00 11,3 8,0 - 0,0
16.10.2018 23:00:00 10,9 8,4 - 0,0
16.10.2018 22:00:00 10,9 9,1 - 0,6
16.10.2018 21:00:00 10,6 10,0 - 1,4
16.10.2018 20:00:00 11,9 9,8 - 2,0
16.10.2018 19:00:00 12,5 9,5 - 0,0
16.10.2018 18:00:00 13,0 9,0 - 0,0
16.10.2018 17:00:00 12,6 9,0 - 0,2
16.10.2018 16:00:00 13,5 8,4 - 0,0
16.10.2018 15:00:00 13,5 8,4 - 0,0
16.10.2018 14:00:00 13,5 9,7 - 0,2
16.10.2018 13:00:00 13,2 10,2 - 0,0
16.10.2018 12:00:00 12,1 8,5 - 0,0
16.10.2018 11:00:00 13,7 6,3 - 0,0
16.10.2018 10:00:00 12,0 4,9 10,5 0,0
16.10.2018 09:00:00 9,7 4,8 - 0,2
16.10.2018 08:00:00 10,2 2,6 - 0,0
16.10.2018 07:00:00 8,3 2,9 - 0,0
16.10.2018 06:00:00 9,5 2,0 - 0,0
16.10.2018 05:00:00 8,7 1,9 - 0,0
16.10.2018 04:00:00 8,4 3,1 - 0,0
16.10.2018 03:00:00 9,3 3,8 - 0,0
16.10.2018 02:00:00 7,7 5,8 - 0,0
16.10.2018 01:00:00 7,5 5,8 - 0,0
16.10.2018 00:00:00 6,9 5,9 - 0,0
15.10.2018 23:00:00 7,7 6,5 - 0,0
15.10.2018 22:00:00 7,8 7,1 - 0,0
15.10.2018 21:00:00 8,3 7,7 - 0,0
15.10.2018 20:00:00 8,6 7,8 - 0,2
15.10.2018 19:00:00 9,8 8,3 - 0,2
15.10.2018 18:00:00 10,7 8,3 - 0,0
15.10.2018 17:00:00 11,1 7,8 - 0,0
15.10.2018 16:00:00 12,0 7,5 - 0,0
15.10.2018 15:00:00 11,5 8,6 - 0,0
15.10.2018 14:00:00 11,7 8,2 - 0,2
15.10.2018 13:00:00 11,3 7,4 - 0,0
15.10.2018 12:00:00 10,7 8,0 - 0,2
15.10.2018 11:00:00 10,4 8,0 - 0,2
15.10.2018 10:00:00 10,8 6,8 10,5 0,0
15.10.2018 09:00:00 9,1 6,8 - 0,0
15.10.2018 08:00:00 9,8 6,9 - 0,2
15.10.2018 07:00:00 9,5 6,6 - 0,0
15.10.2018 06:00:00 10,4 6,1 - 0,0
15.10.2018 05:00:00 8,6 6,8 - 0,0
15.10.2018 04:00:00 8,2 7,0 - 0,2
15.10.2018 03:00:00 9,3 6,0 - 0,0
15.10.2018 02:00:00 8,7 6,0 - 0,0
15.10.2018 01:00:00 8,3 6,3 - 0,0
15.10.2018 00:00:00 7,7 6,6 - 0,0
14.10.2018 23:00:00 6,9 6,2 - 0,2
14.10.2018 22:00:00 6,6 5,8 - 0,0
14.10.2018 21:00:00 7,2 6,3 - 0,0
14.10.2018 20:00:00 7,3 6,0 - 0,4
14.10.2018 19:00:00 7,9 6,2 - 0,2
14.10.2018 18:00:00 8,6 5,7 - 0,0
14.10.2018 17:00:00 10,7 4,8 - 0,2
14.10.2018 16:00:00 12,6 4,3 - 0,0
14.10.2018 15:00:00 12,6 4,0 - 0,0
14.10.2018 14:00:00 9,8 7,0 - 0,2
14.10.2018 13:00:00 10,9 5,4 - 0,0
14.10.2018 12:00:00 10,8 7,2 - 0,0
14.10.2018 11:00:00 7,0 6,6 - 0,0
14.10.2018 10:00:00 6,2 6,1 10,7 0,0
14.10.2018 09:00:00 5,9 5,7 - 0,0
14.10.2018 08:00:00 5,7 5,5 - 0,2
14.10.2018 07:00:00 5,2 4,7 - 0,0
14.10.2018 06:00:00 6,6 6,2 - 0,4
14.10.2018 05:00:00 6,4 6,0 - 0,0
14.10.2018 04:00:00 6,7 6,1 - 0,4
14.10.2018 03:00:00 7,0 6,2 - 0,2
14.10.2018 02:00:00 7,7 6,9 - 1,4
14.10.2018 01:00:00 7,8 7,0 - 1,0
14.10.2018 00:00:00 8,0 7,4 - 0,2
13.10.2018 23:00:00 8,2 7,6 - 1,2
13.10.2018 22:00:00 8,2 7,6 - 0,8
13.10.2018 21:00:00 8,4 8,0 - 1,0
13.10.2018 20:00:00 8,6 8,4 - 2,4
13.10.2018 19:00:00 8,9 8,6 - 2,6
13.10.2018 18:00:00 9,1 8,7 - 4,6
13.10.2018 17:00:00 9,4 8,8 - 2,6
13.10.2018 16:00:00 9,9 8,9 - 2,0
13.10.2018 15:00:00 10,1 8,9 - 1,2
13.10.2018 14:00:00 10,4 8,4 - 1,0
13.10.2018 13:00:00 10,5 9,6 - 0,8
13.10.2018 12:00:00 10,5 9,3 - 0,2
13.10.2018 11:00:00 11,0 8,6 - 0,0
13.10.2018 10:00:00 10,7 8,6 10,9 0,0
13.10.2018 09:00:00 10,4 8,0 - 0,0
13.10.2018 08:00:00 9,6 7,5 - 0,0
13.10.2018 07:00:00 10,2 7,4 - 0,0
13.10.2018 06:00:00 10,8 7,8 - 0,2
13.10.2018 05:00:00 11,6 7,5 - 0,0
13.10.2018 04:00:00 11,5 8,0 - 0,2
13.10.2018 03:00:00 11,4 8,3 - 0,2
13.10.2018 02:00:00 11,5 8,3 - 0,4
13.10.2018 01:00:00 11,7 8,5 - 0,2
13.10.2018 00:00:00 11,7 8,7 - 1,4
12.10.2018 23:00:00 12,0 8,7 - 1,8
12.10.2018 22:00:00 12,0 8,8 - 2,4
12.10.2018 21:00:00 14,0 6,4 - 0,0
12.10.2018 20:00:00 14,7 5,2 - 0,0
12.10.2018 19:00:00 14,6 5,2 - 0,0
12.10.2018 18:00:00 14,0 6,9 - 0,0
12.10.2018 17:00:00 13,3 6,4 - 0,6
12.10.2018 16:00:00 11,9 8,0 - 0,4
12.10.2018 15:00:00 15,3 6,2 - 0,0
12.10.2018 14:00:00 15,5 6,8 - 0,0
12.10.2018 13:00:00 13,9 6,5 - 0,0
12.10.2018 12:00:00 13,9 7,2 - 0,0
12.10.2018 11:00:00 13,2 8,1 - 0,0
12.10.2018 10:00:00 10,7 9,3 11,0 3,2
12.10.2018 09:00:00 10,8 7,6 - 0,2
12.10.2018 08:00:00 10,3 6,7 - 1,0
12.10.2018 07:00:00 9,7 7,4 - 0,6
12.10.2018 06:00:00 10,2 6,1 - 0,2
12.10.2018 05:00:00 11,2 5,6 - 0,0
12.10.2018 04:00:00 9,9 6,3 - 0,0
12.10.2018 03:00:00 6,4 5,4 - 0,0
12.10.2018 02:00:00 6,8 5,6 - 0,0
12.10.2018 01:00:00 8,4 6,4 - 0,0
12.10.2018 00:00:00 9,6 7,3 - 0,0
11.10.2018 23:00:00 10,3 7,6 - 0,0
11.10.2018 22:00:00 11,2 7,8 - 0,0
11.10.2018 21:00:00 10,7 7,5 - 0,0
11.10.2018 20:00:00 11,0 8,6 - 0,0
11.10.2018 19:00:00 12,1 10,0 - 0,4
11.10.2018 18:00:00 16,0 11,1 - 0,0
11.10.2018 17:00:00 16,4 11,0 - 0,0
11.10.2018 16:00:00 17,8 12,5 - 0,2
11.10.2018 15:00:00 16,3 11,7 - 0,0
11.10.2018 14:00:00 16,7 11,7 - 0,0
11.10.2018 13:00:00 16,4 11,6 - 0,0
11.10.2018 12:00:00 16,4 11,6 - 0,0
11.10.2018 11:00:00 16,7 10,4 - 0,0
11.10.2018 10:00:00 16,4 10,3 11,4 0,0
11.10.2018 09:00:00 14,2 8,9 - 0,0
11.10.2018 08:00:00 14,0 8,3 - 0,0
11.10.2018 07:00:00 14,7 7,9 - 0,0
11.10.2018 06:00:00 13,9 7,7 - 0,0

tt = Température de l'air
td = dewpoint
tt -20cm = Température de l'air -20cm
rr = Quantités de précipitations

stations d'obs. à proximité